Flag for Austria

Past Weather in Amstetten, Lower Austria, Austria — Yesterday and Last 2 Weeks

Now
74 °F

Partly sunny.


Feels Like: 77 °F
Forecast: 68 / 56 °F
Wind: 3 mph from North

Location: Linz / Hoersching-Flughafen

Current Time: Jul 15, 2020 at 2:42:39 pm

Latest Report: Jul 15, 2020 at 1:00 pm


Visibility: 41 mi

Pressure: 29.88 "Hg

Humidity: 49%

Dew Point: 53 °F

Location of AmstettenLocation

Past Weather in Amstetten — Graph

°F

Amstetten Temperature Yesterday

Maximum temperature yesterday: 76 °F (at 6:00 pm)
Minimum temperature yesterday: 53 °F (at 6:00 am)
Average temperature yesterday: 66 °F

High & Low Weather Summary for the Past Weeks

 TemperatureHumidityPressure
High91 °F (Jul 10, 6:00 pm)100% (Jul 12, 3:00 am)30.33 "Hg (Jul 12, 3:00 am)
Low49 °F (Jul 8, 5:00 am)31% (Jul 10, 5:00 pm)29.75 "Hg (Jul 10, 6:00 pm)
Average67 °F68%30.02 "Hg
* Reported Jun 30 1:00 pm — Jul 15 1:00 pm, Amstetten. Weather by CustomWeather, © 2020

Note: Actual official high and low records may vary slightly from our data, if they occured in-between our weather recording intervals... More about our weather records

Amstetten Weather History for the Previous 24 Hours

Scroll right to see more
 ConditionsComfort  
Time TempWeatherWind HumidityBarometerVisibility
1:00 pm
Wed, Jul 15
74 °FPartly sunny.3 mph49%29.88 "Hg40 mi
12:00 pm72 °FPartly sunny.2 mph57%29.89 "Hg34 mi
11:00 am71 °FPartly sunny.1 mph60%29.89 "Hg22 mi
10:00 am67 °FPartly sunny.1 mph64%29.90 "Hg25 mi
9:00 am63 °FPartly sunny.1 mph73%29.90 "Hg22 mi
8:00 am61 °FPartly sunny.1 mph80%29.91 "Hg22 mi
7:00 am56 °FScattered clouds.1 mph89%29.92 "Hg19 mi
6:00 am53 °FScattered clouds.1 mph93%29.92 "Hg19 mi
5:00 am53 °FPassing clouds.1 mph93%29.92 "Hg19 mi
4:00 am56 °FPassing clouds.1 mph86%29.93 "Hg25 mi
3:00 am56 °FPassing clouds.3 mph86%29.93 "Hg22 mi
2:00 am56 °FPassing clouds.2 mph84%29.94 "Hg28 mi
1:00 am60 °FCool.2 mph75%29.93 "Hg28 mi
12:00 am62 °FMild.1 mph68%29.91 "Hg31 mi
11:00 pm
Tue, Jul 14
64 °FMild.1 mph68%29.91 "Hg34 mi
10:00 pm69 °FMild.1 mph55%29.90 "Hg17 mi
9:00 pm72 °FPassing clouds.2 mph49%29.89 "Hg34 mi
8:00 pm73 °FPassing clouds.2 mph48%29.88 "Hg37 mi
7:00 pm76 °FMild.1 mph39%29.88 "Hg31 mi
6:00 pm76 °FMild.2 mph40%29.89 "Hg34 mi
5:00 pm76 °FScattered clouds.2 mph38%29.90 "Hg31 mi
4:00 pm74 °FScattered clouds.2 mph40%29.92 "Hg25 mi
3:00 pm75 °FScattered clouds.2 mph47%29.93 "Hg31 mi
2:00 pm73 °FScattered clouds.2 mph47%29.96 "Hg31 mi
Weather by CustomWeather, © 2020

See weather overview